Tracking 19146 objects as of 23-Apr-2018
HD Live streaming from Space Station
objects crossing your sky now

FENGYUN 1C DEB

Track FENGYUN 1C DEB now!
10-day predictions


NORAD ID: 36732
Int'l Code: 1999-025EBE
Perigee: 523.3 km
Apogee: 728.7 km
Inclination: 98.9 °
Period: 97.1 minutes
Semi major axis: 6996 km
RCS: 0.0052 m2 (small)
Launch date: May 10, 1999
Source: People's Republic of China (PRC)
Launch site: Taiyaun Space Center, China (TSC)

Note: This is SATELLITE DEBRIS
aabbcc
Your satellite tracking list
Your tracking list is empty




NASA's NSSDC Master Catalog

Two Line Element Set (TLE):
1 36732U 99025EBE 18112.45267117  .00001526  00000-0  16233-3 0  9994
2 36732  98.9480 195.8923 0146809 224.2473 134.6925 14.83324034500399
Source of the keplerian elements: AFSPC